Wind_Speed
29 29 29 29 28 28 28 28 28 28 29 30 31 31 30 31 32 32 33 33 33 34 34 34 34 35 36 35 34 31 30 30 29 28 27 27 26 26
30 30 29 29 29 29 29 29 29 29 29 31 32 32 32 31 31 32 33 33 32 32 32 33 33 34 35 35 33 31 30 29 29 29 28 27 27 27
30 30 29 30 30 31 31 30 30 31 31 32 33 33 34 34 33 32 32 32 32 31 31 31 32 32 32 33 32 31 30 30 29 29 29 28 28 27
30 30 30 31 32 32 32 33 33 33 33 34 35 35 35 35 35 34 33 33 33 32 31 31 31 31 31 30 30 29 30 29 29 29 29 29 29 29
30 30 31 32 32 33 34 34 35 36 36 36 36 37 37 37 36 35 34 33 33 33 32 32 31 29 29 28 28 27 27 28 28 28 29 29 30 31
29 30 31 32 33 34 35 36 37 38 38 39 39 38 38 38 38 37 36 35 34 33 32 32 31 30 29 28 27 27 27 27 27 28 29 30 32 32
28 30 31 32 33 34 35 36 37 38 39 40 40 40 40 40 40 39 38 37 36 35 33 32 31 32 31 28 28 27 26 27 27 29 30 31 32 32
28 29 30 32 32 33 34 35 36 37 38 39 40 40 40 41 41 40 39 38 38 37 35 34 33 31 30 29 29 28 28 27 28 29 30 30 31 31
26 27 29 29 31 32 33 34 35 36 37 39 39 40 40 40 40 40 40 39 39 38 38 36 35 33 31 30 29 29 30 30 29 30 32 32 31 30
24 25 26 27 28 30 31 32 34 36 37 38 39 40 40 40 40 39 39 39 39 39 38 37 36 34 32 30 31 31 31 31 30 30 32 32 32 31
20 21 23 25 27 28 30 32 33 35 36 37 38 39 39 39 39 39 38 38 38 38 38 37 36 35 34 32 31 32 33 33 33 32 32 32 31 31
18 20 22 24 26 28 29 31 33 34 35 35 36 36 36 36 36 36 36 36 36 37 37 36 35 35 34 34 33 33 34 34 33 32 31 32 31 30
17 19 21 23 24 26 28 29 30 31 32 32 32 32 33 33 33 33 33 34 34 35 35 35 35 35 34 34 34 34 33 34 33 32 31 31 31 30
16 18 20 22 23 25 26 28 28 29 29 29 29 29 29 29 30 31 31 31 32 32 33 34 35 35 35 34 33 33 32 32 32 32 32 33 32 31
15 17 19 21 22 24 26 27 27 26 26 26 26 26 26 26 26 27 28 28 29 30 31 32 34 36 37 37 37 34 33 32 32 32 31 32 32 32
15 16 18 20 22 24 26 26 25 25 24 24 24 24 24 24 24 24 25 25 26 27 28 30 31 33 36 38 38 36 35 33 33 33 33 32 32 33
14 15 17 20 22 24 25 26 26 25 25 24 24 24 23 23 23 23 23 23 24 25 26 28 30 31 32 34 37 38 37 36 35 34 34 35 35 34
14 15 17 20 22 24 25 25 25 25 25 25 24 23 23 22 22 21 21 21 22 24 25 27 27 27 29 31 33 35 37 38 36 35 35 34 35 35
14 15 17 19 21 23 24 25 26 26 26 25 24 23 22 22 22 21 20 20 21 22 23 25 26 26 26 26 27 31 33 35 36 36 34 34 35 36
14 15 16 18 20 22 23 25 26 27 27 27 26 24 23 22 22 21 20 19 19 21 22 23 25 27 27 27 27 28 30 32 34 35 35 35 34 35
15 16 17 18 20 22 24 25 26 28 28 28 28 26 25 24 22 21 20 19 19 19 21 23 25 26 27 28 28 27 28 29 30 31 33 35 35 35
17 17 18 19 20 22 24 26 27 29 29 29 29 28 26 25 23 22 21 19 19 19 19 21 23 26 27 29 29 28 28 27 28 29 30 32 34 35
18 19 20 20 21 23 25 26 28 29 31 31 31 30 28 26 24 23 22 20 19 19 19 20 22 24 26 28 30 31 30 30 29 29 28 30 31 33
Wind_Direction
265 268 271 273 274 275 276 277 277 277 278 281 283 285 285 284 282 279 277 275 272 268 267 265 264 263 260 258 254 252 249 247 248 247 246 244 243 244
265 268 270 272 273 275 276 277 278 276 276 278 281 283 285 286 285 282 278 276 273 271 267 265 265 264 261 260 254 250 247 245 244 244 243 243 243 243
265 267 270 271 273 274 276 277 278 278 277 277 278 279 280 282 283 283 280 277 274 272 269 267 265 265 262 259 255 250 245 243 242 241 240 241 241 243
266 269 270 272 273 275 277 278 278 278 278 278 278 278 277 279 280 281 279 277 274 272 270 269 267 266 263 258 253 249 244 240 239 238 238 239 241 241
268 270 272 274 275 277 278 279 279 279 279 279 278 278 277 277 278 278 277 277 274 272 270 268 265 263 261 257 252 247 242 238 236 236 236 237 238 238
271 273 274 276 277 279 280 280 280 280 280 280 279 277 277 276 275 275 275 275 275 272 268 265 262 260 259 254 251 247 241 237 234 233 234 234 236 239
273 275 277 278 280 281 281 282 282 281 281 280 279 278 276 275 274 273 272 271 272 271 268 264 260 259 257 253 249 246 241 236 233 233 233 233 234 236
275 277 279 281 282 283 284 284 284 283 283 282 280 278 276 274 272 271 269 268 267 267 266 264 260 259 256 252 248 243 240 237 233 233 233 232 232 234
277 280 282 284 285 286 286 286 286 285 284 283 281 279 277 275 273 270 268 266 264 263 262 261 260 258 255 251 247 242 239 237 235 233 234 233 234 236
281 283 284 286 287 289 289 290 290 289 287 285 283 281 278 276 273 271 268 265 262 260 259 259 258 256 253 251 246 243 239 237 237 236 235 234 233 235
283 286 288 290 292 293 294 295 294 293 290 288 285 283 280 276 273 270 267 265 262 259 257 256 254 254 251 250 247 245 242 240 238 237 237 233 232 232
288 292 294 297 298 300 301 301 300 298 295 291 288 284 281 278 274 270 266 263 261 257 254 253 251 251 250 249 247 245 243 242 240 239 238 234 232 231
295 299 301 303 306 308 309 309 306 303 299 295 292 288 285 281 276 272 267 263 260 256 253 249 247 246 247 248 249 248 246 242 240 238 236 236 234 234
302 305 308 311 315 318 318 317 315 311 306 301 296 293 289 285 280 274 269 265 260 256 252 248 245 242 239 240 241 242 243 241 239 239 238 237 236 235
307 311 316 321 324 326 326 324 321 318 314 310 305 299 294 291 286 279 272 267 262 256 251 247 244 243 239 237 237 238 238 237 237 239 240 238 235 233
312 319 325 331 333 333 332 329 327 325 321 317 314 308 302 297 291 285 278 269 262 256 251 248 246 243 242 240 240 239 239 237 236 237 238 238 238 234
316 325 332 335 337 337 337 335 332 329 326 322 319 315 309 303 297 290 283 273 263 257 252 247 248 248 246 243 241 239 239 239 238 237 237 237 236 236
316 326 333 337 339 340 340 339 338 334 331 328 323 320 315 310 305 298 288 277 267 259 252 247 246 246 247 247 246 244 242 242 240 240 240 239 238 236
314 324 331 336 339 341 341 341 341 341 338 334 329 324 320 315 310 305 296 285 272 262 254 248 245 243 244 245 245 245 243 241 241 240 237 237 236 235
309 318 325 332 337 340 342 342 342 342 341 340 336 330 325 320 314 309 303 293 281 267 257 250 247 245 244 243 244 244 243 243 242 241 240 239 238 237
302 311 318 325 331 335 337 339 340 340 340 340 338 334 329 324 318 313 307 298 287 277 264 255 250 247 245 245 245 245 245 244 243 242 241 242 240 240
294 303 310 317 323 329 332 334 336 338 338 338 338 336 332 328 322 316 310 302 293 284 272 262 255 250 247 246 245 243 242 242 242 241 240 239 239 238
290 297 303 308 314 321 326 329 331 333 335 336 337 336 333 329 325 319 313 306 298 290 280 268 259 253 249 245 243 242 241 240 241 241 240 238 238 238
Height
5788 5789 5789 5789 5789 5789 5789 5788 5789 5788 5786 5784 5782 5781 5780 5779 5778 5776 5775 5774 5773 5773 5773 5773 5773 5773 5774 5775 5776 5778 5780 5782 5784 5786 5789 5791 5794 5796
5780 5781 5781 5781 5781 5781 5781 5780 5780 5780 5778 5776 5775 5774 5772 5771 5770 5768 5767 5766 5765 5764 5764 5764 5764 5765 5765 5766 5767 5769 5772 5774 5776 5778 5781 5784 5786 5789
5771 5772 5772 5773 5773 5773 5772 5772 5771 5771 5770 5769 5767 5766 5764 5763 5762 5760 5759 5758 5757 5756 5756 5755 5755 5756 5756 5757 5759 5761 5763 5765 5768 5770 5773 5776 5778 5782
5763 5764 5764 5764 5765 5764 5764 5763 5763 5762 5761 5760 5758 5757 5756 5755 5753 5752 5751 5749 5749 5748 5748 5747 5747 5748 5748 5749 5750 5752 5755 5757 5760 5762 5765 5768 5771 5774
5754 5755 5755 5756 5756 5755 5755 5754 5753 5752 5751 5750 5749 5748 5746 5746 5744 5743 5742 5741 5740 5740 5739 5739 5739 5740 5740 5741 5743 5745 5747 5749 5752 5754 5757 5760 5763 5766
5745 5746 5747 5747 5746 5746 5745 5744 5743 5742 5741 5740 5739 5737 5736 5735 5734 5734 5733 5732 5731 5731 5730 5730 5731 5731 5732 5734 5736 5737 5739 5741 5744 5746 5749 5752 5755 5758
5737 5738 5738 5737 5737 5736 5735 5734 5733 5731 5730 5728 5727 5726 5726 5725 5724 5723 5723 5722 5722 5721 5721 5722 5722 5723 5724 5726 5728 5730 5732 5733 5736 5738 5741 5744 5747 5750
5729 5729 5729 5729 5728 5727 5726 5724 5723 5721 5719 5717 5715 5714 5713 5713 5712 5712 5712 5712 5712 5712 5712 5713 5713 5714 5716 5717 5719 5721 5724 5726 5728 5730 5733 5736 5739 5742
5721 5721 5721 5720 5719 5718 5716 5715 5713 5710 5708 5706 5704 5702 5701 5700 5700 5699 5699 5700 5700 5701 5701 5702 5704 5705 5707 5709 5711 5713 5715 5718 5720 5723 5726 5729 5731 5735
5714 5714 5713 5712 5711 5709 5707 5705 5702 5700 5697 5695 5693 5690 5689 5688 5687 5687 5687 5688 5688 5689 5690 5692 5693 5695 5697 5700 5702 5705 5707 5710 5712 5715 5718 5721 5724 5727
5708 5707 5706 5705 5703 5701 5699 5696 5693 5689 5686 5684 5681 5679 5677 5676 5675 5675 5675 5676 5677 5678 5679 5681 5683 5685 5687 5690 5693 5696 5698 5700 5703 5706 5709 5712 5715 5719
5702 5702 5700 5698 5696 5694 5690 5687 5683 5679 5676 5672 5670 5667 5665 5664 5663 5663 5663 5664 5665 5666 5668 5671 5673 5675 5678 5681 5683 5686 5689 5691 5694 5697 5700 5704 5707 5711
5697 5696 5694 5692 5689 5686 5682 5678 5674 5670 5666 5662 5659 5657 5654 5653 5652 5652 5652 5652 5653 5655 5658 5660 5663 5665 5668 5671 5674 5676 5679 5682 5685 5688 5691 5695 5699 5703
5692 5691 5689 5686 5683 5679 5675 5670 5666 5662 5658 5654 5650 5647 5645 5643 5641 5641 5641 5642 5643 5644 5647 5649 5652 5655 5658 5661 5664 5667 5670 5672 5676 5679 5683 5686 5690 5694
5687 5686 5683 5680 5677 5673 5668 5664 5659 5655 5651 5646 5643 5640 5637 5634 5633 5632 5632 5632 5633 5634 5636 5639 5641 5644 5647 5650 5653 5656 5659 5663 5666 5670 5674 5677 5681 5685
5683 5681 5678 5675 5671 5667 5663 5658 5653 5649 5644 5640 5636 5633 5630 5627 5625 5623 5623 5622 5623 5625 5627 5629 5631 5634 5636 5640 5643 5646 5649 5653 5657 5660 5664 5668 5671 5675
5678 5676 5673 5670 5666 5662 5657 5653 5648 5644 5639 5635 5631 5627 5624 5621 5618 5616 5615 5614 5615 5616 5617 5619 5622 5624 5627 5629 5632 5635 5639 5643 5647 5651 5654 5658 5662 5666
5674 5671 5668 5665 5662 5657 5653 5648 5644 5639 5634 5630 5626 5622 5618 5615 5612 5610 5608 5607 5606 5607 5608 5610 5613 5615 5618 5621 5623 5626 5629 5633 5637 5641 5644 5648 5652 5657
5669 5667 5664 5661 5658 5654 5649 5645 5640 5635 5630 5625 5621 5617 5613 5610 5607 5604 5602 5600 5599 5599 5600 5602 5605 5607 5610 5612 5614 5617 5621 5624 5627 5631 5635 5639 5642 5646
5665 5662 5660 5657 5654 5650 5646 5641 5636 5632 5627 5622 5617 5612 5608 5605 5601 5598 5596 5594 5593 5593 5593 5595 5597 5599 5601 5604 5607 5609 5611 5615 5618 5621 5625 5629 5632 5636
5660 5658 5655 5652 5649 5646 5642 5637 5633 5628 5623 5618 5613 5608 5604 5600 5596 5593 5591 5588 5587 5586 5586 5587 5589 5591 5593 5596 5598 5601 5603 5606 5608 5612 5615 5619 5623 5626
5655 5653 5650 5648 5644 5641 5637 5633 5628 5624 5619 5614 5609 5604 5599 5595 5591 5588 5585 5583 5581 5580 5579 5580 5581 5583 5585 5587 5590 5592 5595 5598 5600 5603 5606 5609 5613 5616
5649 5647 5645 5642 5639 5636 5632 5628 5624 5619 5615 5610 5605 5600 5595 5591 5587 5583 5580 5577 5575 5574 5573 5573 5573 5575 5576 5578 5580 5583 5586 5589 5592 5595 5597 5600 5603 5606